History for KVOK

Volk, WI

Daily Weekly Monthly
Daily Summary for Thursday, April 18, 2019
  Actual: Average: Record:
Temperature
Mean Temperature: 42 °F / 6 °C - :  
Max Temperature: 46 °F / 8 °C 55 °F / 12 °C 82 °F / 27 °C (2002)
Min Temperature: 39 °F / 4 °C 37 °F / 2 °C 23 °F / -5 °C (2014)
Degree Days
Heating Degree Days: 22    
Moisture
Dew Point 41 °F / 5 °C    
Average Humidity 97    
Maximum Humidity 100    
Minimum Humidity 81    
Precipitation
Precipitation 0.00 in / 0.0 cm - - ()
Sea Level Pressure
Sea Level Pressure 29.65 in / 1003.94 hPa   
Wind
Wind Speed 11 mph / 17 km/h ()  
Max Wind Speed 18 mph / 30 km/h   
Max Gust Speed 26 mph / 43 km/h   
Visibility 8.8 miles / 14.2 kilometers   
Events Rain   
Averages and records for this station are not official NWS values.
Key: T is trace of precipitation, MM is missing value
Source: Averaged Metar Reports
Seasonal Weather Averages

Graphs

Observations

History Graphs Observations

Obs Go Here...

Features

Weather Apps

WunderRadio

Weather Underground Apps
Check out our wide variety of mobile and setup applications.

Weather Underground Applications

Top of Page

© Copyright 2019
The Weather Company, LLC
Time(CDT)TemperatureDew PointHumidity Sea Level Pressure Visibility Wind DirectionWind SpeedGust SpeedPrecipitationEvents Conditions
12:01 AM 46.4 °F / 8.0 °C 46.4 °F / 8.0 °C 100% 29.53 in / 1000.0 hPa 3.0 miles / 4.8 kilometers West 12.7 mph / 20.4 km/h - N/A   Overcast
12:16 AM 46.4 °F / 8.0 °C 46.4 °F / 8.0 °C 100% 29.54 in / 1000.3 hPa 4.0 miles / 6.4 kilometers West 13.8 mph / 22.2 km/h - N/A   Overcast
12:56 AM 44.2 °F / 6.8 °C 44.2 °F / 6.8 °C 100% 29.55 in / 1000.7 hPa 6.0 miles / 9.7 kilometers West 12.7 mph / 20.4 km/h - N/A   Overcast
1:56 AM 44.1 °F / 6.7 °C 44.1 °F / 6.7 °C 100% 29.54 in / 1000.2 hPa 8.0 miles / 12.9 kilometers West 8.1 mph / 13.0 km/h - N/A   Overcast
2:56 AM 44.1 °F / 6.7 °C 44.1 °F / 6.7 °C 100% 29.55 in / 1000.7 hPa 10.0 miles / 16.1 kilometers WNW 15.0 mph / 24.1 km/h 20.7 mph / 33.3 km/h N/A   Overcast
3:11 AM 44.6 °F / 7.0 °C 44.6 °F / 7.0 °C 100% 29.55 in / 1000.7 hPa 10.0 miles / 16.1 kilometers WNW 9.2 mph / 14.8 km/h - N/A   Overcast
3:26 AM 44.6 °F / 7.0 °C 44.6 °F / 7.0 °C 100% 29.56 in / 1001.0 hPa 10.0 miles / 16.1 kilometers WNW 8.1 mph / 13.0 km/h - N/A   Overcast
3:41 AM 42.8 °F / 6.0 °C 42.8 °F / 6.0 °C 100% 29.57 in / 1001.4 hPa 10.0 miles / 16.1 kilometers West 9.2 mph / 14.8 km/h - N/A   Overcast
3:52 AM 42.8 °F / 6.0 °C 42.8 °F / 6.0 °C 100% 29.59 in / 1001.8 hPa 10.0 miles / 16.1 kilometers WNW 8.1 mph / 13.0 km/h - N/A   Overcast
3:56 AM 43.0 °F / 6.1 °C 43.0 °F / 6.1 °C 100% 29.60 in / 1002.1 hPa 10.0 miles / 16.1 kilometers West 6.9 mph / 11.1 km/h - N/A   Overcast
4:11 AM 42.8 °F / 6.0 °C 42.8 °F / 6.0 °C 100% 29.60 in / 1002.1 hPa 10.0 miles / 16.1 kilometers West 6.9 mph / 11.1 km/h - N/A   Overcast
4:26 AM 42.8 °F / 6.0 °C 42.8 °F / 6.0 °C 100% 29.60 in / 1002.1 hPa 10.0 miles / 16.1 kilometers WNW 12.7 mph / 20.4 km/h - N/A   Overcast
4:56 AM 41.9 °F / 5.5 °C 41.9 °F / 5.5 °C 100% 29.60 in / 1002.4 hPa 10.0 miles / 16.1 kilometers WNW 11.5 mph / 18.5 km/h - N/A   Overcast
5:11 AM 41.0 °F / 5.0 °C 41.0 °F / 5.0 °C 100% 29.60 in / 1002.4 hPa 10.0 miles / 16.1 kilometers WNW 8.1 mph / 13.0 km/h - N/A   Overcast
5:27 AM 41.0 °F / 5.0 °C 41.0 °F / 5.0 °C 100% 29.60 in / 1002.4 hPa 10.0 miles / 16.1 kilometers NW 11.5 mph / 18.5 km/h - N/A Rain Light Rain
5:36 AM 41.0 °F / 5.0 °C 41.0 °F / 5.0 °C 100% 29.60 in / 1002.4 hPa 10.0 miles / 16.1 kilometers NW 12.7 mph / 20.4 km/h - N/A   Overcast
5:51 AM 41.0 °F / 5.0 °C 41.0 °F / 5.0 °C 100% 29.60 in / 1002.4 hPa 10.0 miles / 16.1 kilometers WNW 8.1 mph / 13.0 km/h - N/A   Overcast
5:56 AM 41.2 °F / 5.1 °C 41.2 °F / 5.1 °C 100% 29.60 in / 1002.4 hPa 10.0 miles / 16.1 kilometers WNW 11.5 mph / 18.5 km/h - 0.00 in / 0.0 cm   Overcast
6:56 AM 39.2 °F / 4.0 °C 39.2 °F / 4.0 °C 100% 29.66 in / 1004.2 hPa 10.0 miles / 16.1 kilometers WNW 17.3 mph / 27.8 km/h - N/A   Overcast
7:06 AM 39.2 °F / 4.0 °C 39.2 °F / 4.0 °C 100% 29.63 in / 1003.3 hPa 6.0 miles / 9.7 kilometers NW 15.0 mph / 24.1 km/h - N/A Rain Light Rain Showers
7:25 AM 39.2 °F / 4.0 °C 39.2 °F / 4.0 °C 100% 29.63 in / 1003.3 hPa 7.0 miles / 11.3 kilometers NW 16.1 mph / 25.9 km/h - N/A Rain Light Rain Showers
7:40 AM 39.2 °F / 4.0 °C 39.2 °F / 4.0 °C 100% 29.61 in / 1002.6 hPa 5.0 miles / 8.0 kilometers NW 15.0 mph / 24.1 km/h - N/A Rain Light Rain Showers
7:56 AM 39.2 °F / 4.0 °C 39.2 °F / 4.0 °C 100% 29.64 in / 1003.5 hPa 3.0 miles / 4.8 kilometers NW 12.7 mph / 20.4 km/h - N/A   Light Drizzle
8:14 AM 39.2 °F / 4.0 °C 39.2 °F / 4.0 °C 100% 29.63 in / 1003.3 hPa 4.0 miles / 6.4 kilometers NW 12.7 mph / 20.4 km/h - N/A   Light Drizzle
8:56 AM 39.2 °F / 4.0 °C 39.2 °F / 4.0 °C 100% 29.66 in / 1004.2 hPa 10.0 miles / 16.1 kilometers NW 12.7 mph / 20.4 km/h - N/A   Overcast
9:50 AM 39.2 °F / 4.0 °C 39.2 °F / 4.0 °C 100% 29.69 in / 1005.2 hPa 10.0 miles / 16.1 kilometers NNW 15.0 mph / 24.1 km/h - N/A   Overcast
9:56 AM 39.7 °F / 4.3 °C 39.7 °F / 4.3 °C 100% 29.70 in / 1005.6 hPa 10.0 miles / 16.1 kilometers NW 10.4 mph / 16.7 km/h - N/A   Overcast
10:56 AM 41.0 °F / 5.0 °C 41.0 °F / 5.0 °C 100% 29.72 in / 1006.3 hPa 10.0 miles / 16.1 kilometers NNW 9.2 mph / 14.8 km/h - N/A   Overcast
11:17 AM 42.8 °F / 6.0 °C 41.0 °F / 5.0 °C 93% 29.73 in / 1006.6 hPa 10.0 miles / 16.1 kilometers NNW 12.7 mph / 20.4 km/h - N/A   Overcast
11:56 AM 42.8 °F / 6.0 °C 41.0 °F / 5.0 °C 93% 29.73 in / 1006.5 hPa 10.0 miles / 16.1 kilometers NNW 13.8 mph / 22.2 km/h 21.9 mph / 35.2 km/h N/A   Overcast
12:56 PM 42.8 °F / 6.0 °C 41.0 °F / 5.0 °C 93% 29.74 in / 1006.9 hPa 10.0 miles / 16.1 kilometers NNW 13.8 mph / 22.2 km/h 21.9 mph / 35.2 km/h N/A   Overcast
1:56 PM 42.8 °F / 6.0 °C 39.2 °F / 4.0 °C 87% 29.75 in / 1007.3 hPa 10.0 miles / 16.1 kilometers NNW 16.1 mph / 25.9 km/h 23.0 mph / 37.0 km/h N/A   Overcast
2:56 PM 44.6 °F / 7.0 °C 39.2 °F / 4.0 °C 81% 29.78 in / 1008.2 hPa 10.0 miles / 16.1 kilometers NNW 11.5 mph / 18.5 km/h - N/A   Overcast
3:56 PM 44.6 °F / 7.0 °C 39.2 °F / 4.0 °C 81% 29.80 in / 1008.9 hPa 10.0 miles / 16.1 kilometers NNW 15.0 mph / 24.1 km/h 25.3 mph / 40.7 km/h N/A   Overcast
4:56 PM 44.4 °F / 6.9 °C 39.2 °F / 4.0 °C 82% 29.82 in / 1009.7 hPa 10.0 miles / 16.1 kilometers NNW 16.1 mph / 25.9 km/h 26.5 mph / 42.6 km/h N/A   Overcast
5:56 PM 43.7 °F / 6.5 °C 38.5 °F / 3.6 °C 82% 29.85 in / 1010.7 hPa 10.0 miles / 16.1 kilometers NNW 18.4 mph / 29.6 km/h 20.7 mph / 33.3 km/h N/A   Overcast
6:56 PM 43.2 °F / 6.2 °C 39.2 °F / 4.0 °C 86% 29.88 in / 1011.8 hPa 10.0 miles / 16.1 kilometers NNW 12.7 mph / 20.4 km/h 23.0 mph / 37.0 km/h N/A   Overcast